Temperature
13 12 11 12 12 13 13 13 13 13 13 13 12 13 13 14 14 13 13 13 13 12 12 12 12 11 11 11 11 11 11 11 11 11 11 11 11 11 11 11 11 11 11 11
12 11 12 13 13 13 13 13 13 13 13 13 12 13 14 13 13 13 13 13 13 12 12 11 11 11 11 11 11 11 11 11 11 11 11 11 11 11 11 11 11 11 11 11
12 12 13 13 12 13 13 12 12 12 12 13 12 12 14 13 13 13 13 13 12 12 12 11 11 10 11 11 11 11 11 11 11 11 11 11 11 11 11 11 11 11 11 11
12 12 12 12 12 12 12 12 12 11 11 11 12 10 12 13 12 12 12 12 12 12 11 11 11 10 10 11 11 11 11 11 11 11 11 11 11 10 11 11 10 10 10 10
12 12 11 11 12 12 11 11 11 11 11 11 12 11 11 13 12 12 12 12 12 11 11 11 10 10 10 10 10 10 10 10 11 11 10 10 10 10 10 10 10 10 10 10
11 11 11 11 11 11 11 11 11 11 10 10 12 11 11 12 12 12 12 12 12 11 11 10 10 10 10 10 10 10 10 10 10 10 10 10 10 10 10 10 9 9 9 9
11 11 11 11 10 11 11 10 10 10 9 10 12 12 12 13 13 13 12 12 12 11 11 10 10 9 9 10 10 10 10 10 10 10 10 10 10 9 9 9 9 9 9 9
10 10 10 10 10 10 10 11 9 10 10 11 12 11 12 13 13 13 12 12 11 11 10 10 10 9 9 9 9 10 10 10 10 10 9 9 9 9 9 9 9 9 9 8
11 10 10 10 11 10 10 10 11 10 10 10 11 13 13 12 12 12 12 11 11 10 10 10 10 9 9 9 9 9 9 9 9 9 9 9 9 9 9 9 8 8 8 8
11 10 10 10 9 9 10 10 9 9 9 10 12 13 11 11 11 11 11 11 11 10 10 10 9 9 9 9 9 9 9 9 9 9 9 9 9 9 8 8 8 8 8 8
11 9 9 9 9 9 9 9 9 9 10 9 10 11 12 12 11 11 11 11 11 10 10 9 9 9 9 9 9 9 9 9 9 9 8 8 8 8 8 8 8 8 7 7
10 9 8 9 10 10 10 10 9 8 9 9 9 10 12 11 11 11 11 11 11 10 9 9 9 8 8 8 8 8 8 8 8 8 8 8 8 8 8 7 7 7 7 7
9 8 7 8 8 8 8 9 9 9 8 7 8 10 11 11 11 11 11 11 10 10 9 9 8 8 8 8 8 8 8 8 8 8 8 8 7 7 7 7 7 7 7 6
9 8 7 8 9 8 8 8 9 8 6 7 8 10 10 10 10 10 10 10 10 9 9 8 8 8 8 8 8 8 8 7 7 7 7 7 7 7 7 6 6 6 6 6
8 7 8 8 9 9 8 8 8 7 7 7 8 10 11 10 9 10 10 10 9 9 8 8 8 8 7 7 7 7 7 7 7 7 7 7 7 6 6 6 6 6 6 6
7 6 7 7 7 8 7 7 8 7 8 8 8 9 10 10 10 9 9 9 9 8 8 8 7 7 7 7 7 7 7 7 7 7 6 6 6 6 6 6 5 5 5 5
6 6 6 6 7 6 5 7 7 7 8 8 7 8 9 8 8 8 8 8 8 8 8 7 7 7 7 7 6 6 6 6 6 6 6 6 5 5 5 5 5 5 5 4
6 6 5 5 5 5 7 9 8 8 8 8 8 8 8 7 8 8 8 7 7 7 7 6 6 6 6 6 6 6 6 6 5 5 5 5 5 5 5 5 4 4 4 4
6 6 5 4 5 6 8 7 7 7 6 7 7 7 7 7 7 7 7 7 6 6 6 6 6 6 6 6 6 5 5 5 5 5 4 4 4 4 4 4 4 4 4 4
5 5 4 4 4 5 7 6 7 7 5 6 6 6 6 6 4 5 6 6 6 5 5 5 5 5 5 5 5 5 5 4 4 4 4 4 4 4 3 3 3 3 3 3
3 3 3 3 4 5 6 6 6 5 5 6 6 6 6 5 5 5 5 5 5 5 5 5 5 4 4 4 4 4 4 4 4 3 3 3 3 3 3 3 3 3 3 3
3 3 3 3 3 4 5 5 4 5 5 5 5 5 5 5 5 5 5 5 4 4 4 4 4 4 4 4 4 3 3 3 3 3 3 3 2 2 2 2 2 2 2 2
4 4 4 4 4 5 5 5 5 5 5 5 4 4 4 4 4 4 4 4 4 4 4 4 3 3 3 3 3 3 3 3 2 2 2 2 2 2 2 2 2 2 2 1
4 4 4 4 4 5 5 5 5 4 4 4 4 3 3 3 3 3 3 3 3 3 3 3 3 3 3 2 2 2 2 2 2 2 2 2 1 1 1 1 1 1 1 1
4 3 3 3 4 5 5 4 4 4 3 3 3 3 3 2 2 2 2 2 2 2 2 2 2 2 2 2 2 2 1 1 1 1 1 1 1 1 1 1 1 1 1 0
3 3 2 2 3 3 3 4 3 3 3 2 2 2 2 2 2 2 2 1 2 1 1 1 1 1 1 1 1 1 1 1 1 1 1 1 0 0 -0 0 0 0 -0 -0
Wind_Speed
4 3 2 3 4 6 5 6 5 3 1 3 7 9 6 4 4 4 3 4 4 3 5 5 5 5 5 4 3 3 4 3 3 3 2 2 2 1 1 2 3 2 2 2
3 3 3 4 4 6 5 6 4 2 0 3 7 9 6 5 5 4 4 4 4 3 5 5 5 4 4 4 3 3 3 3 3 3 3 2 2 1 1 2 2 2 2 2
3 1 2 4 4 5 5 4 4 3 4 6 5 6 5 4 4 3 3 3 4 4 5 5 5 4 4 4 3 2 3 3 4 4 3 3 2 1 1 1 1 1 2 2
2 1 3 4 4 3 4 3 3 4 4 3 2 4 4 5 6 5 5 4 4 4 5 5 5 4 4 3 3 3 3 3 4 4 4 3 2 1 1 1 1 1 2 2
2 0 2 3 2 3 2 4 4 5 5 4 4 4 5 5 6 7 6 5 5 5 6 5 5 5 5 4 4 3 3 3 4 3 3 2 1 1 1 1 1 1 1 2
3 1 1 2 2 2 3 4 5 4 3 4 5 5 4 4 7 7 7 6 6 6 6 6 5 6 5 5 4 3 4 3 3 3 2 2 2 2 2 1 0 0 1 1
3 4 3 1 2 2 2 2 1 1 3 5 3 3 5 3 5 6 6 6 6 6 6 6 6 6 5 5 4 3 3 3 3 3 2 2 2 2 1 1 1 1 0 0
3 3 5 3 1 1 3 2 1 2 3 2 2 5 3 4 6 6 6 5 5 5 5 6 6 6 6 5 5 4 4 3 3 3 3 2 2 1 1 1 1 1 1 1
2 1 3 2 1 2 2 2 1 2 5 4 5 4 2 5 6 5 6 6 5 5 5 4 5 5 5 5 4 4 4 4 3 3 3 2 2 2 2 1 1 1 1 1
3 2 2 4 2 4 3 4 0 2 2 4 5 5 4 6 6 6 6 6 5 5 4 4 4 4 4 4 4 3 3 3 3 3 3 2 3 3 2 2 2 2 2 1
3 2 2 3 6 5 5 3 4 3 3 3 4 3 2 5 6 6 5 5 5 5 4 4 3 3 3 3 4 3 3 3 2 2 3 3 3 3 3 3 3 3 2 2
1 2 4 4 0 1 3 5 4 3 4 4 4 5 2 6 5 5 4 4 4 4 4 3 4 4 3 3 3 3 3 3 3 3 2 3 3 3 3 3 3 3 3 3
0 2 2 2 1 0 3 4 5 3 2 4 5 5 2 4 3 3 4 4 3 3 3 3 3 4 4 3 3 3 3 3 3 3 3 3 3 3 4 4 3 3 4 4
1 4 6 6 3 2 5 7 7 6 5 6 9 9 5 4 3 2 2 2 3 3 3 3 3 3 3 3 3 3 3 3 3 3 4 4 4 4 4 4 4 4 4 4
3 5 7 9 8 8 10 11 10 12 11 10 10 10 9 5 4 3 3 3 2 3 3 4 3 3 3 3 3 3 3 3 3 4 4 5 4 4 4 4 4 4 4 5
4 5 5 8 8 10 14 14 14 14 14 15 16 16 9 5 1 1 2 2 3 3 3 3 3 3 3 3 3 3 4 3 4 4 5 4 4 4 5 5 5 5 5 5
5 4 4 6 5 7 11 12 14 10 10 10 14 11 4 3 2 2 3 2 3 2 2 2 3 3 3 3 3 3 3 3 3 4 4 4 4 5 5 5 5 5 5 5
7 6 5 5 4 10 7 1 3 7 7 7 7 5 4 2 2 3 3 2 2 2 2 2 2 2 2 2 2 2 2 3 4 4 5 4 5 5 5 5 6 6 5 5
9 8 5 4 7 10 6 2 3 4 5 4 5 5 3 3 3 4 3 2 2 2 2 1 1 1 1 2 3 3 3 3 4 5 5 5 4 5 5 6 6 5 5 5
3 5 6 6 6 7 3 1 2 1 4 2 1 3 3 1 2 4 3 2 2 2 2 1 1 2 2 3 2 2 4 4 5 5 5 4 4 5 6 6 5 4 5 6
3 4 8 9 8 7 2 2 3 2 3 2 2 2 2 2 3 3 3 2 2 2 2 1 2 2 3 2 1 3 4 5 5 3 3 4 4 5 6 5 4 4 5 5
7 6 7 6 8 7 2 3 3 2 1 2 3 3 3 3 3 3 3 3 2 2 2 2 2 3 3 2 2 4 5 5 3 3 4 4 5 5 4 5 5 5 5 6
6 6 4 6 6 2 2 1 1 1 2 3 4 4 4 4 5 5 4 4 4 3 3 3 3 4 3 3 3 5 5 3 3 3 4 5 5 5 5 5 5 5 5 5
4 3 4 5 5 3 3 3 2 2 3 4 4 5 5 5 6 6 5 4 4 3 3 3 4 4 5 4 4 5 4 3 3 4 5 5 5 5 5 5 5 5 5 6
4 3 5 8 7 6 3 2 2 3 3 4 4 4 5 5 6 6 5 5 4 4 3 3 4 5 6 4 4 4 3 3 4 5 5 5 5 5 5 5 6 6 7 7
6 6 5 6 4 4 4 3 3 3 4 4 5 5 5 5 6 6 5 5 4 4 4 4 5 5 5 5 5 4 3 3 4 5 5 4 4 4 5 5 5 7 8 10
Wind_Direction
198 226 245 261 265 287 292 274 275 279 148 235 248 258 248 220 210 207 205 194 183 169 136 127 128 124 120 115 115 132 146 140 122 121 121 105 121 115 104 96 105 103 80 53
219 238 276 298 285 286 283 282 286 315 133 258 265 264 236 202 199 194 195 182 161 143 129 127 131 130 132 130 129 137 134 125 117 118 115 111 109 114 102 87 86 91 91 75
254 325 323 292 294 289 280 288 303 319 309 248 261 275 204 159 156 162 176 163 149 148 145 137 139 141 130 122 127 135 127 121 113 109 104 96 78 63 74 103 137 129 112 96
262 237 283 278 281 290 274 346 323 305 299 268 236 284 241 174 169 181 181 170 166 148 136 137 142 142 132 128 124 119 121 123 115 110 115 123 126 145 180 147 142 133 113 100
256 99 276 266 302 315 294 314 285 275 274 282 236 237 259 181 187 186 175 169 150 142 139 139 137 138 132 125 119 118 117 113 111 113 127 132 121 125 92 82 82 107 124 128
245 250 289 295 325 279 285 281 260 250 269 269 225 209 263 193 186 172 169 162 153 149 142 137 128 121 117 113 115 125 127 124 121 127 134 137 130 108 101 98 166 191 135 132
229 195 173 222 272 216 254 299 328 283 231 245 179 209 250 159 136 148 157 152 146 147 145 143 140 138 140 141 145 148 144 143 139 138 142 141 134 141 168 187 196 202 164 183
247 230 170 183 232 257 243 268 235 259 263 268 204 228 230 113 104 113 123 130 136 142 143 147 152 152 154 156 160 159 156 158 153 151 158 160 161 164 184 188 183 212 210 199
278 246 124 149 296 296 254 224 290 303 292 277 240 213 149 130 119 131 138 142 151 148 141 146 146 145 148 156 162 165 167 167 166 166 164 171 182 184 194 207 208 212 225 226
314 283 190 136 184 243 278 316 238 206 273 276 260 227 205 170 166 160 158 158 150 146 149 149 144 145 152 158 161 164 168 167 167 174 174 176 192 194 198 199 215 222 229 233
288 253 217 187 207 197 187 218 229 250 249 251 283 280 48 134 145 151 155 148 151 155 159 160 156 152 150 151 160 169 173 171 176 183 184 187 194 193 199 210 218 219 221 223
254 278 251 235 170 0 226 222 204 216 252 235 258 271 56 89 106 125 134 135 135 146 152 158 160 156 155 164 177 185 189 188 190 190 196 202 200 197 207 218 219 214 225 227
196 237 274 270 268 215 248 239 243 263 280 243 241 253 117 107 109 123 134 139 141 149 157 162 165 168 173 180 188 194 199 198 191 187 200 214 214 211 219 226 222 218 224 231
287 242 225 239 263 235 247 237 225 218 222 243 238 253 244 217 213 221 203 178 162 172 182 184 189 188 187 192 201 204 208 201 194 195 206 218 221 218 221 227 225 224 223 226
216 248 253 263 272 272 263 253 235 230 228 236 255 262 263 259 236 223 211 201 192 204 208 198 200 209 202 203 215 215 217 209 200 206 216 224 227 222 221 226 228 226 226 229
224 253 273 268 257 261 266 255 245 243 243 248 262 270 278 291 317 272 250 225 222 230 216 205 209 220 219 219 226 227 228 220 207 216 228 230 228 225 224 226 227 228 230 231
212 225 251 265 264 291 265 241 230 229 226 233 249 259 286 299 327 331 313 281 250 245 240 222 214 218 224 228 230 235 233 232 224 231 238 236 232 231 229 226 226 230 231 232
226 230 244 267 273 249 250 187 209 227 240 237 255 278 297 289 313 308 299 295 306 314 301 263 241 233 227 229 238 232 220 219 227 239 246 242 237 236 230 226 229 231 229 230
228 224 233 238 251 267 265 224 183 215 262 259 256 285 317 3 350 310 311 333 319 312 310 297 283 277 257 239 227 225 227 221 229 238 241 239 236 239 236 234 235 234 232 237
247 233 228 232 246 255 268 72 65 112 257 357 342 300 301 54 298 287 323 337 330 342 342 343 340 317 283 265 223 221 238 236 238 240 242 238 233 235 239 240 241 239 235 239
195 219 226 235 245 258 266 134 102 182 256 1 357 314 294 237 244 291 334 340 335 326 318 309 289 273 268 267 241 245 253 249 246 243 243 243 239 239 242 244 241 239 239 242
198 203 211 216 233 246 122 120 179 240 347 343 341 332 317 304 322 327 311 298 297 298 296 288 273 268 267 251 237 250 255 255 247 243 247 249 246 245 243 236 241 238 235 241
209 205 212 214 228 287 163 223 259 1 330 334 337 334 324 309 301 302 301 294 286 283 285 280 272 273 269 251 239 252 264 263 253 252 254 255 253 247 240 234 235 237 234 237
243 252 268 271 260 258 244 258 286 309 305 323 330 322 313 299 296 297 294 290 284 278 274 272 270 273 272 261 252 249 256 249 252 257 258 255 253 253 248 241 232 231 233 236
261 253 262 266 276 292 278 278 297 320 318 310 307 301 295 293 290 289 291 287 283 282 276 268 262 265 271 271 265 259 252 244 254 259 259 260 255 252 251 245 238 236 234 231
247 243 245 259 276 278 287 312 326 311 301 301 301 300 296 283 284 287 284 282 279 279 278 278 274 270 271 271 268 262 249 239 249 262 262 258 257 258 254 256 267 252 247 255
Height
1496 1498 1498 1496 1494 1492 1490 1490 1489 1486 1485 1487 1487 1484 1480 1479 1479 1480 1481 1483 1484 1484 1485 1487 1488 1489 1491 1492 1493 1494 1496 1497 1498 1499 1501 1503 1504 1505 1507 1507 1508 1509 1510 1510
1495 1496 1494 1492 1491 1490 1489 1490 1488 1485 1484 1486 1484 1481 1476 1476 1476 1478 1479 1481 1482 1483 1485 1486 1487 1488 1489 1491 1492 1494 1494 1495 1497 1498 1500 1501 1502 1504 1505 1505 1506 1507 1508 1508
1494 1494 1492 1491 1491 1490 1490 1491 1489 1489 1486 1483 1484 1481 1474 1473 1474 1476 1478 1479 1481 1482 1484 1485 1486 1487 1488 1489 1491 1492 1493 1494 1495 1497 1499 1500 1501 1502 1503 1504 1505 1505 1506 1506
1492 1492 1492 1491 1491 1491 1492 1490 1489 1490 1492 1490 1484 1493 1476 1472 1475 1475 1477 1478 1480 1481 1483 1484 1485 1486 1487 1488 1490 1491 1492 1493 1494 1495 1497 1498 1499 1500 1501 1502 1502 1503 1504 1504
1492 1491 1492 1492 1491 1491 1492 1490 1489 1489 1490 1490 1484 1490 1480 1470 1473 1474 1475 1476 1478 1480 1481 1483 1484 1485 1487 1488 1489 1490 1492 1492 1493 1495 1496 1497 1498 1499 1500 1500 1500 1501 1502 1502
1492 1491 1492 1491 1491 1491 1491 1490 1487 1488 1492 1496 1482 1486 1480 1470 1467 1469 1471 1474 1476 1478 1480 1482 1483 1485 1486 1487 1488 1489 1491 1492 1493 1494 1495 1496 1496 1497 1498 1499 1499 1499 1500 1500
1491 1491 1491 1492 1492 1491 1492 1495 1499 1498 1499 1491 1475 1479 1476 1463 1462 1465 1469 1472 1475 1477 1479 1481 1482 1483 1484 1486 1487 1489 1490 1490 1491 1492 1493 1494 1495 1496 1497 1497 1498 1498 1498 1498
1493 1494 1490 1491 1492 1493 1492 1493 1502 1503 1495 1485 1478 1480 1469 1462 1462 1464 1467 1470 1473 1476 1478 1479 1481 1482 1483 1485 1486 1487 1488 1489 1490 1490 1491 1492 1493 1494 1495 1495 1495 1495 1495 1496
1490 1491 1489 1490 1491 1492 1491 1493 1491 1496 1491 1490 1480 1468 1465 1462 1464 1465 1468 1470 1472 1474 1476 1478 1480 1481 1482 1484 1485 1486 1487 1487 1488 1489 1490 1491 1492 1492 1493 1493 1493 1493 1493 1493
1488 1493 1488 1490 1492 1492 1492 1490 1494 1498 1498 1492 1475 1468 1469 1466 1466 1466 1468 1470 1472 1473 1475 1477 1478 1479 1481 1482 1483 1484 1485 1486 1486 1487 1488 1488 1489 1490 1490 1490 1490 1490 1490 1490
1488 1493 1491 1490 1489 1488 1492 1492 1491 1492 1489 1494 1487 1476 1460 1460 1462 1464 1466 1468 1470 1472 1474 1475 1476 1478 1479 1480 1481 1482 1482 1483 1484 1485 1485 1485 1486 1486 1487 1487 1487 1487 1487 1487
1488 1491 1493 1487 1484 1484 1485 1485 1488 1495 1491 1487 1489 1480 1460 1459 1461 1463 1466 1468 1469 1471 1473 1474 1475 1476 1477 1478 1478 1479 1479 1480 1481 1481 1482 1482 1483 1483 1483 1483 1484 1484 1484 1484
1489 1492 1495 1489 1490 1489 1487 1484 1484 1486 1490 1490 1489 1478 1461 1460 1462 1463 1465 1467 1468 1470 1471 1472 1473 1474 1474 1475 1476 1476 1477 1477 1478 1478 1479 1479 1479 1480 1480 1480 1480 1480 1480 1480
1489 1490 1491 1488 1482 1484 1485 1483 1483 1488 1494 1487 1478 1468 1463 1462 1462 1463 1464 1465 1467 1468 1469 1470 1470 1471 1471 1472 1473 1473 1473 1474 1474 1475 1475 1475 1476 1476 1476 1476 1476 1476 1476 1475
1488 1489 1483 1480 1478 1478 1478 1478 1478 1481 1480 1481 1470 1464 1459 1459 1460 1461 1462 1462 1464 1465 1466 1467 1467 1468 1468 1469 1469 1469 1470 1470 1470 1471 1471 1471 1471 1472 1472 1472 1472 1471 1471 1471
1486 1486 1483 1481 1477 1476 1475 1471 1471 1472 1471 1468 1465 1461 1457 1457 1457 1458 1459 1460 1461 1462 1463 1463 1464 1465 1465 1465 1465 1465 1465 1466 1466 1466 1466 1467 1467 1467 1467 1467 1467 1467 1466 1466
1484 1484 1484 1481 1476 1476 1474 1462 1462 1462 1459 1460 1462 1458 1456 1456 1456 1457 1457 1458 1458 1459 1459 1460 1460 1461 1461 1461 1461 1461 1461 1461 1461 1461 1462 1462 1462 1462 1462 1462 1462 1462 1462 1461
1479 1481 1483 1480 1479 1481 1459 1451 1451 1453 1454 1455 1454 1454 1454 1454 1455 1455 1455 1455 1456 1456 1456 1457 1457 1457 1457 1458 1458 1457 1457 1457 1457 1457 1457 1457 1457 1457 1457 1457 1457 1457 1457 1456
1472 1476 1479 1479 1476 1464 1453 1451 1452 1454 1454 1452 1452 1452 1453 1453 1453 1453 1453 1453 1453 1454 1454 1454 1454 1454 1454 1454 1454 1453 1453 1452 1452 1452 1452 1452 1452 1452 1452 1451 1451 1451 1451 1451
1469 1471 1477 1475 1474 1467 1453 1451 1448 1451 1455 1451 1450 1451 1451 1452 1456 1453 1451 1451 1451 1451 1451 1451 1450 1450 1450 1450 1450 1449 1448 1448 1448 1448 1447 1447 1447 1447 1446 1446 1446 1446 1446 1445
1473 1474 1474 1472 1469 1459 1451 1450 1450 1458 1455 1450 1449 1449 1450 1451 1452 1450 1449 1449 1449 1448 1448 1448 1447 1447 1446 1446 1446 1445 1444 1444 1444 1443 1443 1442 1442 1442 1441 1441 1441 1440 1440 1439
1465 1467 1468 1466 1467 1460 1450 1450 1452 1452 1450 1449 1448 1448 1448 1448 1448 1447 1447 1446 1446 1445 1445 1444 1444 1443 1443 1442 1442 1441 1440 1440 1439 1439 1438 1437 1437 1436 1436 1435 1435 1435 1434 1434
1456 1456 1456 1456 1454 1449 1448 1448 1448 1448 1448 1447 1447 1447 1446 1445 1445 1445 1444 1443 1443 1442 1441 1441 1440 1439 1439 1439 1438 1437 1436 1435 1435 1433 1433 1432 1431 1431 1430 1430 1429 1429 1428 1428
1451 1450 1450 1450 1446 1445 1446 1446 1446 1446 1446 1445 1445 1444 1443 1443 1442 1442 1441 1440 1439 1438 1438 1437 1436 1435 1434 1434 1433 1432 1432 1431 1430 1428 1427 1427 1426 1425 1425 1424 1424 1423 1423 1422
1448 1449 1448 1446 1444 1443 1442 1443 1443 1443 1443 1442 1442 1441 1440 1440 1439 1438 1437 1436 1435 1434 1434 1433 1432 1431 1430 1429 1428 1428 1427 1426 1425 1423 1422 1421 1421 1420 1419 1418 1418 1417 1417 1417
1445 1447 1447 1444 1442 1442 1441 1441 1440 1440 1440 1439 1438 1437 1436 1436 1435 1434 1433 1432 1431 1430 1429 1428 1427 1426 1425 1424 1423 1423 1422 1421 1419 1418 1417 1416 1415 1414 1413 1413 1412 1411 1411 1410